Precipitable_Water
0.42 0.41 0.40 0.39 0.39 0.40 0.39 0.37 0.37 0.38 0.41 0.41 0.39 0.40 0.39 0.38 0.38 0.40 0.41 0.44 0.44 0.44 0.46 0.48 0.51 0.53 0.53 0.58 0.63 0.66 0.69 0.60 0.53 0.46 0.42 0.35 0.37 0.43 0.42 0.37 0.35 0.36 0.55 0.66 0.57 0.52 0.53 0.58 0.58 0.72 0.67 0.80 0.86 0.95 1.22 1.37 1.45 1.39 1.08 1.03 0.91 1.00 0.96 1.09 1.07 1.12 1.18 1.13 1.22 1.28 1.36 1.31 1.23 1.42 1.47 1.60 1.47 1.47 1.49 1.45 1.50 1.56 1.59 1.56 1.51 1.55 1.54 1.57
0.41 0.41 0.40 0.41 0.41 0.38 0.39 0.37 0.40 0.41 0.40 0.38 0.40 0.40 0.39 0.38 0.38 0.39 0.42 0.44 0.44 0.45 0.44 0.46 0.48 0.51 0.52 0.56 0.62 0.66 0.64 0.59 0.50 0.47 0.41 0.42 0.43 0.41 0.39 0.42 0.43 0.39 0.55 0.53 0.41 0.39 0.44 0.50 0.52 0.63 0.63 0.64 0.89 0.84 1.22 1.14 1.42 1.10 1.03 1.05 0.88 1.03 1.09 1.26 1.23 1.23 1.17 1.14 1.23 1.28 1.33 1.29 1.25 1.35 1.44 1.29 1.28 1.36 1.31 1.36 1.43 1.41 1.51 1.57 1.52 1.49 1.48 1.50
0.42 0.40 0.39 0.41 0.39 0.38 0.37 0.39 0.38 0.38 0.37 0.38 0.39 0.38 0.37 0.37 0.37 0.38 0.42 0.42 0.43 0.44 0.45 0.45 0.47 0.49 0.51 0.57 0.60 0.63 0.61 0.53 0.51 0.41 0.45 0.53 0.51 0.46 0.40 0.41 0.42 0.50 0.40 0.38 0.39 0.35 0.36 0.42 0.49 0.58 0.61 0.57 0.75 0.77 1.06 1.09 1.22 1.18 1.04 0.91 0.98 1.15 1.19 1.27 1.26 1.21 1.26 1.25 1.19 1.23 1.28 1.29 1.34 1.38 1.49 1.24 1.21 1.29 1.19 1.18 1.31 1.33 1.33 1.41 1.43 1.46 1.44 1.45
0.41 0.42 0.41 0.38 0.37 0.37 0.38 0.38 0.38 0.35 0.38 0.39 0.37 0.35 0.35 0.35 0.36 0.39 0.40 0.41 0.43 0.43 0.44 0.46 0.47 0.48 0.51 0.56 0.59 0.61 0.58 0.51 0.38 0.43 0.51 0.55 0.52 0.47 0.41 0.40 0.43 0.49 0.41 0.47 0.44 0.36 0.40 0.46 0.46 0.52 0.54 0.54 0.63 0.81 0.85 1.08 1.03 1.16 1.08 0.95 1.00 1.17 1.14 1.20 1.27 1.26 1.28 1.29 1.21 1.23 1.31 1.27 1.36 1.42 1.42 1.34 1.23 1.22 1.25 1.35 1.26 1.26 1.35 1.37 1.38 1.40 1.40 1.39
0.42 0.39 0.37 0.37 0.36 0.37 0.36 0.36 0.35 0.37 0.37 0.36 0.37 0.38 0.36 0.36 0.38 0.39 0.39 0.41 0.42 0.43 0.44 0.47 0.48 0.48 0.52 0.57 0.58 0.61 0.47 0.35 0.34 0.46 0.53 0.63 0.58 0.53 0.44 0.40 0.45 0.46 0.36 0.41 0.48 0.46 0.40 0.38 0.44 0.50 0.55 0.47 0.63 0.75 0.81 1.02 1.10 1.10 0.97 1.10 1.15 1.17 1.09 1.20 1.26 1.30 1.27 1.30 1.23 1.24 1.18 1.22 1.48 1.43 1.36 1.36 1.15 1.11 1.23 1.38 1.46 1.40 1.41 1.38 1.32 1.35 1.37 1.34
0.37 0.36 0.36 0.35 0.35 0.35 0.35 0.33 0.34 0.34 0.34 0.36 0.37 0.34 0.35 0.38 0.40 0.40 0.40 0.40 0.42 0.44 0.45 0.48 0.49 0.47 0.55 0.58 0.56 0.51 0.37 0.20 0.44 0.47 0.77 0.63 0.59 0.58 0.50 0.43 0.48 0.43 0.34 0.31 0.38 0.39 0.37 0.36 0.37 0.41 0.52 0.55 0.60 0.66 0.80 0.94 1.10 0.81 0.96 1.10 1.19 1.22 1.10 1.19 1.21 1.26 1.27 1.20 1.16 1.16 1.21 1.32 1.33 1.30 1.39 1.35 1.25 1.30 1.51 1.55 1.51 1.49 1.47 1.46 1.43 1.36 1.31 1.31
0.37 0.35 0.35 0.34 0.34 0.34 0.33 0.33 0.32 0.32 0.33 0.34 0.32 0.34 0.37 0.39 0.41 0.41 0.41 0.41 0.42 0.45 0.47 0.49 0.48 0.48 0.50 0.56 0.51 0.40 0.29 0.29 0.43 0.53 0.61 0.58 0.57 0.57 0.54 0.45 0.52 0.38 0.32 0.25 0.31 0.32 0.33 0.28 0.31 0.35 0.47 0.55 0.62 0.66 0.80 0.91 0.99 0.89 0.84 1.05 1.07 1.16 1.12 1.20 1.20 1.27 1.26 1.20 1.15 1.24 1.31 1.19 1.25 1.15 1.37 1.30 1.41 1.50 1.58 1.63 1.60 1.55 1.56 1.50 1.39 1.36 1.29 1.28
0.34 0.34 0.34 0.33 0.33 0.32 0.32 0.31 0.31 0.31 0.31 0.32 0.32 0.35 0.38 0.40 0.40 0.40 0.41 0.42 0.43 0.45 0.48 0.48 0.51 0.50 0.53 0.46 0.33 0.26 0.27 0.22 0.43 0.56 0.60 0.72 0.65 0.59 0.58 0.47 0.44 0.36 0.31 0.24 0.24 0.26 0.30 0.26 0.22 0.33 0.40 0.46 0.58 0.63 0.78 0.84 0.92 0.80 0.80 1.00 1.07 1.13 1.13 1.18 1.21 1.23 1.24 1.23 1.26 1.26 1.18 1.16 1.21 1.19 1.30 1.25 1.40 1.50 1.58 1.66 1.66 1.59 1.49 1.44 1.37 1.36 1.37 1.35
0.36 0.34 0.33 0.33 0.32 0.31 0.31 0.31 0.30 0.30 0.30 0.30 0.31 0.35 0.37 0.39 0.40 0.40 0.40 0.41 0.42 0.45 0.47 0.48 0.48 0.53 0.55 0.41 0.29 0.21 0.17 0.32 0.56 0.62 0.62 0.64 0.65 0.63 0.55 0.39 0.44 0.31 0.28 0.29 0.26 0.25 0.26 0.24 0.23 0.27 0.29 0.42 0.57 0.57 0.67 0.71 0.70 0.82 0.79 0.96 1.06 1.08 1.12 1.13 1.13 1.16 1.18 1.20 1.21 1.15 1.12 1.20 1.23 1.34 1.22 1.29 1.40 1.51 1.60 1.61 1.63 1.61 1.47 1.37 1.35 1.35 1.35 1.34
0.37 0.37 0.35 0.33 0.32 0.31 0.31 0.30 0.30 0.29 0.30 0.30 0.30 0.33 0.36 0.38 0.40 0.39 0.38 0.39 0.41 0.44 0.49 0.51 0.55 0.55 0.45 0.33 0.31 0.17 0.39 0.61 0.72 0.75 0.75 0.74 0.67 0.56 0.47 0.38 0.37 0.31 0.27 0.28 0.28 0.27 0.23 0.22 0.20 0.27 0.32 0.37 0.50 0.51 0.60 0.65 0.67 0.86 0.84 0.96 1.01 1.06 1.09 1.12 1.07 1.10 1.16 1.15 1.18 1.08 1.09 1.14 1.27 1.25 1.09 1.35 1.45 1.53 1.54 1.53 1.59 1.57 1.49 1.36 1.32 1.34 1.36 1.35
0.38 0.37 0.36 0.35 0.32 0.31 0.31 0.31 0.30 0.30 0.30 0.29 0.30 0.33 0.36 0.37 0.38 0.37 0.37 0.37 0.43 0.47 0.49 0.50 0.57 0.58 0.37 0.33 0.19 0.14 0.32 0.50 0.56 0.63 0.68 0.68 0.63 0.50 0.38 0.39 0.35 0.28 0.26 0.28 0.26 0.27 0.25 0.24 0.27 0.30 0.29 0.27 0.38 0.46 0.57 0.65 0.78 0.84 0.84 0.93 0.97 1.03 1.07 1.08 1.08 1.07 1.11 1.07 1.17 1.13 1.07 1.16 1.22 1.22 1.12 1.27 1.44 1.50 1.46 1.48 1.52 1.52 1.49 1.36 1.29 1.31 1.37 1.38
0.41 0.39 0.37 0.35 0.33 0.31 0.31 0.31 0.30 0.29 0.29 0.29 0.32 0.34 0.34 0.33 0.35 0.34 0.35 0.38 0.46 0.51 0.49 0.52 0.55 0.53 0.46 0.30 0.20 0.17 0.26 0.44 0.56 0.58 0.56 0.62 0.58 0.57 0.47 0.40 0.35 0.29 0.27 0.24 0.26 0.28 0.28 0.25 0.29 0.29 0.20 0.34 0.27 0.42 0.51 0.72 0.75 0.79 0.85 0.73 0.84 0.96 0.92 0.97 0.93 1.00 1.07 1.04 1.14 1.17 1.07 1.01 1.08 1.01 1.19 1.34 1.43 1.43 1.41 1.43 1.45 1.48 1.48 1.40 1.30 1.31 1.35 1.37
0.42 0.40 0.38 0.37 0.34 0.32 0.31 0.31 0.30 0.29 0.29 0.30 0.34 0.34 0.32 0.30 0.32 0.32 0.35 0.40 0.53 0.48 0.52 0.55 0.54 0.52 0.38 0.19 0.19 0.24 0.30 0.38 0.45 0.51 0.52 0.55 0.65 0.70 0.64 0.54 0.41 0.35 0.30 0.26 0.25 0.27 0.27 0.26 0.28 0.27 0.33 0.32 0.32 0.32 0.53 0.67 0.73 0.77 0.80 0.75 0.77 0.82 0.80 0.90 0.94 0.94 0.96 1.06 1.16 1.13 0.78 0.89 1.00 1.11 1.20 1.37 1.40 1.41 1.38 1.38 1.42 1.46 1.48 1.45 1.32 1.28 1.32 1.39
0.43 0.42 0.40 0.38 0.37 0.34 0.32 0.32 0.32 0.30 0.30 0.34 0.34 0.32 0.30 0.30 0.31 0.32 0.37 0.48 0.56 0.54 0.55 0.56 0.53 0.48 0.36 0.20 0.20 0.32 0.38 0.40 0.49 0.50 0.46 0.53 0.56 0.63 0.67 0.59 0.52 0.46 0.41 0.30 0.28 0.30 0.27 0.27 0.29 0.31 0.38 0.34 0.31 0.48 0.53 0.55 0.65 0.62 0.72 0.78 0.67 0.68 0.66 0.85 0.86 0.88 0.84 1.03 1.15 1.12 0.79 0.86 0.98 1.09 1.23 1.36 1.40 1.36 1.30 1.34 1.39 1.41 1.43 1.44 1.35 1.28 1.28 1.33
0.45 0.44 0.43 0.40 0.39 0.36 0.33 0.33 0.32 0.32 0.34 0.36 0.33 0.31 0.30 0.28 0.30 0.34 0.41 0.54 0.60 0.57 0.54 0.55 0.54 0.41 0.27 0.21 0.37 0.42 0.44 0.52 0.40 0.48 0.59 0.49 0.53 0.54 0.59 0.64 0.52 0.45 0.40 0.36 0.32 0.34 0.31 0.27 0.28 0.27 0.27 0.39 0.43 0.40 0.43 0.49 0.55 0.57 0.54 0.50 0.60 0.61 0.64 0.77 0.84 0.82 0.75 0.94 1.11 1.07 0.80 0.82 0.95 1.04 1.20 1.34 1.36 1.35 1.27 1.31 1.35 1.37 1.41 1.42 1.37 1.28 1.29 1.29
0.44 0.45 0.43 0.41 0.39 0.37 0.34 0.33 0.32 0.33 0.36 0.35 0.33 0.31 0.30 0.28 0.32 0.37 0.46 0.56 0.58 0.52 0.52 0.42 0.47 0.45 0.33 0.19 0.33 0.50 0.42 0.32 0.37 0.47 0.51 0.56 0.54 0.53 0.60 0.61 0.58 0.47 0.42 0.36 0.37 0.35 0.32 0.25 0.22 0.27 0.31 0.39 0.37 0.35 0.36 0.41 0.46 0.52 0.46 0.44 0.47 0.53 0.58 0.65 0.73 0.79 0.82 0.86 1.00 0.97 0.78 0.86 0.91 1.06 1.20 1.31 1.31 1.32 1.27 1.28 1.31 1.35 1.39 1.39 1.38 1.31 1.29 1.31
0.43 0.44 0.43 0.40 0.39 0.36 0.34 0.33 0.33 0.35 0.36 0.35 0.33 0.30 0.29 0.28 0.35 0.45 0.56 0.58 0.51 0.47 0.46 0.42 0.52 0.54 0.16 0.44 0.55 0.42 0.35 0.37 0.40 0.34 0.35 0.45 0.53 0.60 0.62 0.59 0.53 0.47 0.41 0.38 0.37 0.35 0.30 0.22 0.24 0.31 0.36 0.35 0.36 0.38 0.31 0.31 0.33 0.39 0.45 0.40 0.46 0.45 0.51 0.52 0.66 0.74 0.79 0.82 0.80 0.94 0.84 0.83 0.89 1.01 1.16 1.26 1.28 1.29 1.26 1.25 1.29 1.33 1.37 1.39 1.39 1.36 1.29 1.26
0.44 0.44 0.44 0.42 0.40 0.36 0.34 0.33 0.33 0.35 0.36 0.34 0.32 0.28 0.25 0.24 0.38 0.51 0.55 0.49 0.43 0.49 0.54 0.64 0.56 0.37 0.22 0.39 0.25 0.31 0.38 0.34 0.34 0.32 0.30 0.35 0.45 0.59 0.62 0.55 0.50 0.45 0.40 0.34 0.36 0.28 0.30 0.21 0.23 0.22 0.29 0.32 0.35 0.34 0.26 0.18 0.25 0.30 0.35 0.35 0.40 0.46 0.48 0.48 0.51 0.61 0.73 0.79 0.78 0.84 0.82 0.81 0.86 0.97 1.10 1.19 1.27 1.26 1.24 1.25 1.26 1.29 1.34 1.37 1.37 1.35 1.29 1.23
0.42 0.44 0.45 0.44 0.41 0.37 0.36 0.35 0.35 0.36 0.37 0.35 0.30 0.28 0.25 0.27 0.33 0.46 0.36 0.25 0.20 0.21 0.18 0.26 0.28 0.13 0.11 0.20 0.28 0.29 0.30 0.34 0.35 0.32 0.29 0.34 0.48 0.58 0.63 0.64 0.54 0.43 0.33 0.31 0.29 0.28 0.29 0.26 0.26 0.23 0.22 0.25 0.27 0.29 0.25 0.28 0.33 0.34 0.37 0.36 0.38 0.38 0.41 0.43 0.52 0.61 0.69 0.72 0.73 0.78 0.74 0.77 0.83 0.93 1.07 1.18 1.25 1.22 1.24 1.28 1.28 1.29 1.31 1.33 1.33 1.32 1.29 1.22
0.40 0.43 0.46 0.46 0.42 0.37 0.37 0.36 0.37 0.36 0.38 0.31 0.25 0.21 0.18 0.13 0.13 0.11 0.19 0.17 0.18 0.19 0.22 0.23 0.29 0.26 0.26 0.25 0.23 0.27 0.33 0.34 0.29 0.33 0.32 0.36 0.46 0.52 0.53 0.59 0.54 0.48 0.36 0.26 0.29 0.28 0.30 0.20 0.18 0.17 0.18 0.22 0.28 0.34 0.35 0.36 0.36 0.36 0.38 0.37 0.36 0.38 0.41 0.47 0.51 0.57 0.67 0.68 0.69 0.74 0.78 0.82 0.84 0.92 1.03 1.14 1.21 1.21 1.23 1.24 1.25 1.26 1.27 1.29 1.31 1.29 1.27 1.24
0.39 0.42 0.45 0.46 0.43 0.36 0.37 0.36 0.36 0.36 0.37 0.33 0.25 0.17 0.13 0.14 0.10 0.08 0.12 0.12 0.19 0.26 0.26 0.27 0.26 0.24 0.22 0.25 0.26 0.22 0.18 0.21 0.30 0.34 0.36 0.38 0.41 0.45 0.44 0.50 0.48 0.39 0.36 0.33 0.30 0.35 0.31 0.19 0.19 0.19 0.22 0.29 0.32 0.39 0.41 0.39 0.38 0.36 0.34 0.33 0.33 0.36 0.35 0.45 0.47 0.56 0.62 0.58 0.58 0.71 0.78 0.81 0.85 0.92 1.00 1.13 1.16 1.13 1.16 1.19 1.20 1.23 1.25 1.27 1.28 1.27 1.25 1.25
0.39 0.40 0.44 0.46 0.44 0.37 0.37 0.37 0.35 0.33 0.36 0.32 0.22 0.18 0.21 0.23 0.25 0.24 0.19 0.09 0.13 0.29 0.30 0.30 0.32 0.27 0.28 0.27 0.28 0.26 0.23 0.19 0.23 0.34 0.39 0.40 0.38 0.37 0.41 0.42 0.41 0.37 0.40 0.37 0.35 0.31 0.25 0.19 0.17 0.22 0.28 0.33 0.37 0.39 0.42 0.40 0.35 0.35 0.33 0.32 0.30 0.31 0.37 0.45 0.48 0.56 0.59 0.57 0.54 0.63 0.64 0.70 0.80 0.89 0.99 1.05 1.09 1.13 1.18 1.17 1.17 1.19 1.21 1.24 1.27 1.27 1.27 1.28
0.37 0.39 0.42 0.45 0.43 0.38 0.37 0.38 0.33 0.32 0.29 0.25 0.21 0.21 0.22 0.30 0.34 0.30 0.23 0.16 0.13 0.26 0.32 0.32 0.29 0.27 0.26 0.28 0.28 0.28 0.20 0.15 0.18 0.32 0.35 0.41 0.38 0.39 0.41 0.37 0.37 0.40 0.41 0.38 0.30 0.28 0.22 0.22 0.23 0.26 0.31 0.34 0.37 0.39 0.40 0.39 0.38 0.33 0.32 0.30 0.25 0.30 0.32 0.30 0.41 0.51 0.56 0.54 0.53 0.60 0.59 0.65 0.75 0.84 0.92 1.01 1.07 1.11 1.17 1.19 1.19 1.21 1.18 1.20 1.22 1.26 1.26 1.25
0.36 0.38 0.42 0.44 0.43 0.38 0.38 0.37 0.34 0.28 0.26 0.28 0.25 0.23 0.30 0.36 0.35 0.29 0.19 0.12 0.11 0.23 0.30 0.32 0.32 0.29 0.25 0.24 0.28 0.25 0.21 0.19 0.21 0.30 0.37 0.38 0.36 0.41 0.40 0.39 0.36 0.38 0.36 0.37 0.35 0.30 0.24 0.29 0.30 0.33 0.34 0.35 0.34 0.37 0.37 0.36 0.32 0.34 0.31 0.29 0.27 0.28 0.31 0.30 0.35 0.46 0.52 0.53 0.55 0.53 0.54 0.60 0.69 0.72 0.80 0.94 1.08 1.09 1.14 1.18 1.20 1.24 1.24 1.23 1.26 1.31 1.33 1.27
0.36 0.37 0.41 0.44 0.43 0.41 0.38 0.39 0.26 0.26 0.30 0.27 0.24 0.29 0.33 0.37 0.36 0.29 0.18 0.14 0.15 0.20 0.31 0.32 0.32 0.31 0.30 0.36 0.31 0.23 0.24 0.23 0.23 0.32 0.36 0.37 0.35 0.35 0.35 0.42 0.40 0.33 0.35 0.40 0.38 0.34 0.32 0.35 0.41 0.30 0.34 0.36 0.36 0.34 0.35 0.35 0.30 0.30 0.32 0.30 0.28 0.31 0.30 0.31 0.36 0.41 0.41 0.42 0.50 0.50 0.39 0.41 0.58 0.66 0.69 0.81 0.96 1.00 1.09 1.09 1.12 1.18 1.22 1.27 1.26 1.27 1.34 1.36
0.36 0.37 0.41 0.43 0.44 0.42 0.40 0.28 0.27 0.32 0.28 0.22 0.25 0.33 0.34 0.36 0.38 0.31 0.19 0.11 0.07 0.15 0.26 0.16 0.27 0.23 0.32 0.25 0.30 0.26 0.25 0.20 0.24 0.30 0.33 0.37 0.38 0.33 0.34 0.36 0.38 0.29 0.35 0.37 0.38 0.37 0.34 0.39 0.42 0.39 0.32 0.35 0.36 0.33 0.35 0.36 0.29 0.27 0.23 0.31 0.32 0.32 0.32 0.31 0.33 0.37 0.34 0.32 0.45 0.52 0.37 0.33 0.52 0.54 0.64 0.73 0.81 0.87 0.99 1.03 1.06 1.12 1.17 1.21 1.21 1.24 1.28 1.32
0.36 0.38 0.41 0.43 0.44 0.45 0.29 0.24 0.35 0.35 0.22 0.24 0.33 0.37 0.38 0.37 0.41 0.29 0.16 0.11 0.07 0.18 0.15 0.17 0.18 0.20 0.25 0.25 0.28 0.29 0.14 0.15 0.24 0.28 0.30 0.38 0.35 0.39 0.30 0.31 0.37 0.37 0.38 0.39 0.38 0.33 0.41 0.39 0.39 0.43 0.40 0.34 0.33 0.31 0.36 0.38 0.31 0.23 0.24 0.31 0.34 0.33 0.31 0.30 0.35 0.37 0.36 0.42 0.46 0.49 0.45 0.36 0.36 0.48 0.59 0.67 0.73 0.78 0.86 0.92 1.00 1.07 1.12 1.15 1.18 1.22 1.25 1.31
0.37 0.39 0.43 0.44 0.44 0.46 0.34 0.37 0.35 0.28 0.28 0.34 0.39 0.40 0.41 0.41 0.36 0.28 0.15 0.06 0.05 0.20 0.16 0.17 0.19 0.23 0.20 0.24 0.28 0.26 0.24 0.27 0.17 0.23 0.33 0.38 0.40 0.36 0.32 0.30 0.31 0.34 0.37 0.36 0.24 0.31 0.42 0.39 0.38 0.37 0.38 0.36 0.30 0.30 0.34 0.40 0.33 0.26 0.31 0.31 0.29 0.32 0.32 0.30 0.35 0.39 0.40 0.39 0.33 0.41 0.46 0.36 0.33 0.41 0.57 0.64 0.62 0.71 0.76 0.82 0.90 0.99 1.06 1.11 1.15 1.20 1.23 1.27
0.37 0.41 0.45 0.45 0.47 0.47 0.49 0.41 0.36 0.30 0.37 0.41 0.42 0.42 0.41 0.38 0.28 0.17 0.11 0.06 0.22 0.17 0.29 0.18 0.26 0.20 0.15 0.19 0.21 0.28 0.27 0.30 0.20 0.25 0.33 0.37 0.42 0.39 0.28 0.31 0.33 0.33 0.38 0.36 0.28 0.35 0.39 0.44 0.46 0.43 0.38 0.33 0.37 0.39 0.41 0.42 0.35 0.37 0.40 0.37 0.31 0.30 0.32 0.33 0.33 0.38 0.41 0.38 0.30 0.37 0.42 0.32 0.30 0.39 0.46 0.62 0.60 0.60 0.69 0.78 0.85 0.92 0.96 1.03 1.10 1.16 1.20 1.25
0.39 0.43 0.47 0.49 0.48 0.47 0.46 0.49 0.38 0.42 0.46 0.45 0.45 0.43 0.39 0.30 0.22 0.12 0.08 0.05 0.20 0.12 0.19 0.20 0.17 0.14 0.16 0.12 0.16 0.25 0.27 0.29 0.29 0.28 0.30 0.32 0.37 0.41 0.40 0.39 0.35 0.34 0.32 0.36 0.36 0.37 0.42 0.52 0.56 0.53 0.42 0.38 0.42 0.45 0.46 0.44 0.41 0.46 0.44 0.37 0.33 0.29 0.27 0.33 0.34 0.36 0.39 0.32 0.30 0.38 0.41 0.37 0.26 0.33 0.40 0.49 0.52 0.57 0.65 0.77 0.84 0.89 0.92 0.97 1.04 1.09 1.14 1.21
0.40 0.44 0.49 0.54 0.44 0.49 0.51 0.40 0.42 0.50 0.50 0.48 0.45 0.39 0.30 0.22 0.14 0.09 0.06 0.10 0.19 0.18 0.20 0.18 0.15 0.18 0.14 0.11 0.09 0.20 0.25 0.29 0.30 0.28 0.25 0.31 0.32 0.39 0.37 0.35 0.40 0.31 0.31 0.31 0.31 0.37 0.41 0.49 0.51 0.52 0.56 0.55 0.49 0.42 0.49 0.51 0.49 0.45 0.41 0.37 0.34 0.30 0.31 0.27 0.30 0.36 0.31 0.27 0.33 0.39 0.39 0.39 0.26 0.26 0.39 0.48 0.59 0.64 0.64 0.68 0.75 0.81 0.86 0.91 0.99 1.07 1.13 1.18
0.40 0.46 0.53 0.53 0.55 0.60 0.44 0.41 0.48 0.53 0.49 0.48 0.39 0.30 0.23 0.14 0.17 0.10 0.09 0.23 0.11 0.15 0.15 0.15 0.17 0.16 0.15 0.16 0.14 0.12 0.17 0.26 0.32 0.28 0.25 0.26 0.30 0.31 0.37 0.34 0.36 0.26 0.23 0.24 0.23 0.31 0.33 0.38 0.49 0.56 0.63 0.59 0.53 0.44 0.42 0.47 0.49 0.46 0.42 0.39 0.30 0.23 0.23 0.18 0.25 0.25 0.27 0.26 0.34 0.39 0.40 0.33 0.30 0.30 0.36 0.44 0.54 0.64 0.67 0.67 0.71 0.75 0.79 0.84 0.92 1.00 1.08 1.15
0.40 0.47 0.57 0.58 0.60 0.52 0.54 0.56 0.55 0.51 0.49 0.45 0.33 0.30 0.19 0.13 0.09 0.17 0.15 0.17 0.13 0.18 0.16 0.19 0.17 0.17 0.16 0.14 0.12 0.14 0.17 0.18 0.30 0.30 0.29 0.29 0.29 0.34 0.41 0.39 0.40 0.33 0.22 0.27 0.25 0.25 0.26 0.36 0.43 0.50 0.61 0.63 0.58 0.44 0.39 0.37 0.43 0.43 0.39 0.36 0.30 0.22 0.18 0.14 0.19 0.25 0.28 0.33 0.39 0.38 0.40 0.30 0.30 0.32 0.37 0.39 0.46 0.58 0.69 0.72 0.72 0.74 0.77 0.81 0.87 0.95 1.03 1.11
0.39 0.48 0.53 0.57 0.59 0.57 0.57 0.58 0.53 0.50 0.46 0.40 0.31 0.25 0.20 0.13 0.13 0.22 0.17 0.18 0.18 0.22 0.21 0.18 0.19 0.19 0.17 0.13 0.14 0.17 0.12 0.20 0.24 0.30 0.30 0.27 0.28 0.29 0.35 0.40 0.39 0.34 0.31 0.30 0.25 0.25 0.20 0.22 0.30 0.42 0.42 0.60 0.58 0.52 0.46 0.38 0.39 0.41 0.44 0.41 0.32 0.26 0.18 0.12 0.16 0.18 0.22 0.26 0.32 0.38 0.32 0.24 0.23 0.24 0.34 0.37 0.43 0.52 0.64 0.74 0.78 0.79 0.80 0.82 0.84 0.90 0.95 1.02
0.41 0.48 0.57 0.60 0.58 0.58 0.58 0.57 0.52 0.51 0.46 0.38 0.30 0.24 0.17 0.16 0.20 0.18 0.19 0.20 0.22 0.22 0.20 0.22 0.19 0.19 0.16 0.16 0.17 0.19 0.18 0.13 0.22 0.26 0.29 0.27 0.27 0.29 0.32 0.35 0.40 0.39 0.34 0.26 0.30 0.29 0.24 0.23 0.27 0.39 0.47 0.57 0.56 0.58 0.58 0.49 0.41 0.43 0.45 0.46 0.37 0.27 0.29 0.19 0.19 0.22 0.24 0.25 0.26 0.29 0.28 0.28 0.27 0.30 0.33 0.36 0.40 0.45 0.53 0.65 0.79 0.81 0.85 0.88 0.90 0.92 0.94 0.98
0.38 0.48 0.59 0.56 0.57 0.59 0.62 0.62 0.56 0.52 0.44 0.35 0.27 0.22 0.20 0.22 0.18 0.22 0.20 0.23 0.22 0.19 0.19 0.20 0.20 0.18 0.17 0.16 0.18 0.16 0.22 0.15 0.18 0.20 0.27 0.30 0.32 0.30 0.36 0.38 0.38 0.40 0.34 0.28 0.32 0.26 0.27 0.21 0.30 0.37 0.44 0.49 0.54 0.58 0.57 0.56 0.33 0.35 0.42 0.35 0.32 0.38 0.36 0.27 0.25 0.27 0.26 0.25 0.21 0.28 0.27 0.28 0.29 0.27 0.28 0.32 0.35 0.38 0.46 0.57 0.69 0.76 0.81 0.85 0.87 0.91 0.95 0.98
0.36 0.52 0.52 0.58 0.58 0.63 0.64 0.63 0.59 0.49 0.40 0.31 0.24 0.19 0.22 0.24 0.22 0.20 0.21 0.19 0.20 0.20 0.18 0.14 0.16 0.16 0.15 0.15 0.16 0.17 0.17 0.20 0.18 0.16 0.18 0.31 0.28 0.34 0.35 0.39 0.45 0.42 0.41 0.35 0.30 0.39 0.26 0.22 0.31 0.32 0.32 0.41 0.52 0.58 0.61 0.59 0.53 0.43 0.33 0.33 0.43 0.46 0.41 0.31 0.20 0.21 0.19 0.16 0.17 0.24 0.23 0.24 0.23 0.18 0.26 0.28 0.30 0.34 0.41 0.50 0.60 0.68 0.76 0.78 0.80 0.84 0.91 0.95
0.39 0.50 0.58 0.58 0.60 0.65 0.65 0.63 0.58 0.46 0.35 0.28 0.22 0.23 0.28 0.21 0.24 0.23 0.24 0.22 0.22 0.21 0.18 0.16 0.17 0.19 0.16 0.16 0.15 0.17 0.18 0.15 0.16 0.15 0.15 0.27 0.25 0.37 0.38 0.39 0.44 0.44 0.43 0.41 0.32 0.32 0.33 0.22 0.27 0.34 0.35 0.38 0.50 0.53 0.52 0.59 0.60 0.48 0.36 0.42 0.36 0.29 0.27 0.31 0.28 0.18 0.15 0.15 0.15 0.19 0.23 0.23 0.22 0.19 0.22 0.24 0.27 0.30 0.37 0.43 0.51 0.59 0.66 0.70 0.73 0.77 0.86 0.92
0.43 0.51 0.45 0.56 0.64 0.65 0.63 0.61 0.52 0.40 0.31 0.24 0.22 0.20 0.24 0.24 0.27 0.25 0.26 0.25 0.25 0.22 0.19 0.20 0.18 0.21 0.21 0.18 0.19 0.18 0.17 0.14 0.18 0.15 0.12 0.20 0.26 0.35 0.39 0.43 0.40 0.45 0.45 0.40 0.34 0.35 0.37 0.27 0.25 0.37 0.36 0.40 0.41 0.45 0.39 0.43 0.51 0.52 0.50 0.42 0.42 0.36 0.27 0.24 0.25 0.24 0.22 0.16 0.16 0.15 0.19 0.17 0.21 0.20 0.21 0.23 0.27 0.29 0.32 0.39 0.44 0.48 0.55 0.60 0.65 0.68 0.74 0.86
0.43 0.44 0.44 0.60 0.64 0.63 0.62 0.55 0.44 0.37 0.30 0.22 0.24 0.24 0.28 0.26 0.28 0.30 0.31 0.28 0.25 0.24 0.23 0.22 0.24 0.22 0.23 0.22 0.21 0.17 0.18 0.17 0.19 0.19 0.17 0.20 0.25 0.41 0.37 0.45 0.40 0.42 0.46 0.43 0.36 0.39 0.33 0.39 0.22 0.30 0.38 0.38 0.30 0.36 0.37 0.40 0.38 0.39 0.39 0.37 0.37 0.33 0.35 0.32 0.29 0.25 0.21 0.18 0.17 0.14 0.13 0.15 0.20 0.23 0.22 0.22 0.25 0.29 0.30 0.34 0.39 0.44 0.48 0.52 0.57 0.61 0.67 0.74
0.52 0.47 0.47 0.63 0.64 0.63 0.59 0.47 0.38 0.33 0.29 0.31 0.30 0.27 0.28 0.28 0.31 0.31 0.33 0.33 0.30 0.32 0.28 0.26 0.26 0.23 0.25 0.23 0.22 0.22 0.19 0.20 0.21 0.21 0.21 0.20 0.22 0.26 0.41 0.41 0.43 0.41 0.45 0.41 0.37 0.38 0.34 0.34 0.26 0.29 0.29 0.28 0.30 0.37 0.41 0.45 0.46 0.41 0.37 0.34 0.34 0.30 0.28 0.26 0.23 0.29 0.26 0.22 0.18 0.16 0.12 0.14 0.19 0.24 0.22 0.22 0.23 0.25 0.28 0.30 0.35 0.41 0.46 0.49 0.54 0.61 0.64 0.68
0.46 0.38 0.45 0.65 0.66 0.61 0.49 0.36 0.37 0.39 0.33 0.28 0.26 0.31 0.29 0.37 0.31 0.31 0.33 0.35 0.33 0.31 0.35 0.31 0.31 0.29 0.28 0.26 0.25 0.23 0.22 0.19 0.20 0.21 0.24 0.19 0.25 0.25 0.37 0.45 0.45 0.46 0.43 0.37 0.37 0.41 0.41 0.38 0.33 0.28 0.30 0.29 0.31 0.37 0.43 0.48 0.48 0.45 0.43 0.36 0.37 0.35 0.33 0.29 0.22 0.23 0.26 0.26 0.26 0.23 0.17 0.14 0.19 0.20 0.20 0.21 0.21 0.21 0.23 0.27 0.30 0.35 0.42 0.45 0.49 0.57 0.63 0.67
0.47 0.44 0.61 0.68 0.66 0.58 0.45 0.36 0.40 0.37 0.33 0.35 0.38 0.37 0.38 0.36 0.34 0.36 0.34 0.36 0.33 0.35 0.33 0.31 0.31 0.29 0.32 0.29 0.27 0.24 0.25 0.21 0.22 0.22 0.25 0.24 0.24 0.26 0.34 0.43 0.47 0.45 0.45 0.42 0.42 0.42 0.48 0.38 0.31 0.30 0.32 0.32 0.33 0.37 0.40 0.45 0.46 0.43 0.42 0.41 0.37 0.33 0.33 0.29 0.26 0.27 0.25 0.25 0.24 0.23 0.18 0.14 0.19 0.23 0.23 0.23 0.23 0.23 0.23 0.21 0.24 0.31 0.36 0.40 0.46 0.53 0.59 0.64
0.52 0.52 0.57 0.68 0.67 0.59 0.42 0.33 0.33 0.35 0.37 0.38 0.36 0.35 0.40 0.38 0.36 0.35 0.34 0.37 0.35 0.35 0.33 0.34 0.35 0.36 0.32 0.34 0.30 0.25 0.29 0.19 0.29 0.24 0.22 0.27 0.23 0.32 0.32 0.39 0.46 0.43 0.43 0.42 0.40 0.44 0.36 0.40 0.36 0.26 0.25 0.25 0.25 0.30 0.34 0.44 0.46 0.43 0.41 0.43 0.42 0.37 0.36 0.34 0.33 0.33 0.27 0.26 0.24 0.21 0.15 0.13 0.16 0.26 0.28 0.30 0.31 0.30 0.29 0.29 0.26 0.21 0.27 0.38 0.43 0.49 0.57 0.61
0.56 0.62 0.61 0.62 0.66 0.57 0.42 0.45 0.41 0.38 0.37 0.35 0.34 0.32 0.34 0.37 0.42 0.41 0.38 0.36 0.40 0.39 0.38 0.36 0.37 0.36 0.34 0.35 0.31 0.31 0.30 0.25 0.22 0.26 0.25 0.26 0.25 0.32 0.33 0.35 0.44 0.43 0.48 0.50 0.51 0.55 0.43 0.40 0.35 0.26 0.21 0.19 0.17 0.19 0.24 0.31 0.38 0.43 0.44 0.43 0.41 0.38 0.34 0.33 0.29 0.30 0.25 0.25 0.26 0.22 0.18 0.16 0.18 0.22 0.25 0.29 0.31 0.31 0.32 0.33 0.32 0.30 0.27 0.29 0.39 0.47 0.53 0.59
0.50 0.41 0.53 0.56 0.60 0.55 0.52 0.53 0.48 0.42 0.38 0.35 0.32 0.35 0.38 0.36 0.41 0.44 0.42 0.39 0.42 0.42 0.40 0.39 0.40 0.38 0.35 0.34 0.31 0.29 0.28 0.30 0.25 0.24 0.25 0.22 0.27 0.31 0.34 0.36 0.39 0.44 0.49 0.55 0.57 0.57 0.42 0.41 0.39 0.34 0.29 0.25 0.26 0.29 0.38 0.41 0.40 0.37 0.39 0.40 0.39 0.38 0.39 0.36 0.32 0.28 0.24 0.26 0.24 0.22 0.20 0.19 0.19 0.19 0.23 0.26 0.30 0.29 0.30 0.31 0.31 0.31 0.31 0.32 0.34 0.43 0.50 0.56
0.59 0.47 0.48 0.44 0.55 0.53 0.48 0.50 0.45 0.46 0.38 0.41 0.32 0.36 0.34 0.37 0.39 0.39 0.45 0.35 0.43 0.41 0.40 0.39 0.39 0.34 0.35 0.33 0.30 0.29 0.30 0.27 0.29 0.26 0.23 0.24 0.27 0.29 0.33 0.35 0.40 0.45 0.54 0.54 0.59 0.52 0.43 0.37 0.38 0.38 0.36 0.35 0.35 0.35 0.39 0.40 0.37 0.40 0.40 0.38 0.41 0.40 0.38 0.36 0.29 0.25 0.28 0.26 0.21 0.23 0.24 0.21 0.19 0.22 0.26 0.27 0.28 0.29 0.30 0.30 0.31 0.35 0.36 0.37 0.37 0.38 0.46 0.53
0.47 0.54 0.59 0.61 0.48 0.43 0.45 0.44 0.48 0.45 0.45 0.43 0.38 0.42 0.37 0.36 0.37 0.33 0.40 0.44 0.45 0.46 0.37 0.38 0.38 0.39 0.37 0.34 0.32 0.27 0.27 0.26 0.26 0.22 0.25 0.26 0.25 0.28 0.27 0.35 0.36 0.47 0.53 0.52 0.57 0.48 0.41 0.35 0.40 0.39 0.37 0.38 0.38 0.37 0.40 0.40 0.41 0.43 0.44 0.43 0.42 0.43 0.41 0.36 0.32 0.29 0.30 0.25 0.20 0.24 0.25 0.22 0.22 0.27 0.28 0.29 0.29 0.27 0.28 0.31 0.34 0.36 0.37 0.39 0.40 0.40 0.41 0.44
0.63 0.62 0.61 0.68 0.51 0.52 0.51 0.51 0.51 0.46 0.42 0.43 0.41 0.41 0.36 0.37 0.35 0.39 0.39 0.39 0.41 0.40 0.43 0.32 0.34 0.36 0.37 0.37 0.34 0.28 0.28 0.22 0.21 0.25 0.24 0.25 0.25 0.25 0.24 0.28 0.37 0.48 0.47 0.47 0.49 0.52 0.44 0.39 0.42 0.42 0.38 0.38 0.37 0.38 0.41 0.41 0.42 0.45 0.48 0.50 0.50 0.46 0.42 0.39 0.36 0.34 0.30 0.27 0.27 0.27 0.27 0.24 0.25 0.29 0.30 0.31 0.34 0.34 0.36 0.41 0.39 0.40 0.39 0.37 0.37 0.38 0.40 0.43
0.57 0.57 0.55 0.66 0.60 0.56 0.55 0.53 0.50 0.46 0.41 0.44 0.37 0.40 0.39 0.38 0.36 0.40 0.44 0.41 0.35 0.37 0.45 0.37 0.37 0.38 0.38 0.36 0.34 0.29 0.29 0.29 0.26 0.22 0.28 0.27 0.24 0.27 0.26 0.27 0.31 0.45 0.47 0.44 0.48 0.53 0.45 0.38 0.45 0.42 0.37 0.35 0.39 0.40 0.41 0.41 0.44 0.45 0.52 0.58 0.56 0.53 0.45 0.42 0.38 0.34 0.31 0.30 0.31 0.29 0.27 0.25 0.30 0.35 0.34 0.39 0.41 0.43 0.47 0.44 0.39 0.39 0.39 0.39 0.37 0.37 0.39 0.45
0.73 0.77 0.72 0.59 0.51 0.53 0.55 0.52 0.47 0.45 0.41 0.42 0.38 0.41 0.40 0.39 0.37 0.41 0.40 0.46 0.40 0.37 0.41 0.38 0.42 0.41 0.40 0.37 0.34 0.31 0.34 0.32 0.30 0.29 0.30 0.30 0.23 0.29 0.27 0.30 0.37 0.36 0.42 0.44 0.47 0.49 0.49 0.42 0.45 0.41 0.35 0.34 0.39 0.38 0.39 0.45 0.50 0.50 0.56 0.57 0.54 0.48 0.37 0.40 0.38 0.46 0.33 0.29 0.31 0.31 0.27 0.25 0.31 0.40 0.47 0.52 0.49 0.48 0.48 0.47 0.42 0.42 0.42 0.40 0.39 0.39 0.40 0.44
0.82 0.84 0.81 0.67 0.50 0.56 0.50 0.52 0.50 0.46 0.38 0.42 0.43 0.42 0.40 0.39 0.42 0.45 0.38 0.47 0.45 0.46 0.45 0.44 0.44 0.41 0.37 0.35 0.32 0.34 0.37 0.36 0.35 0.35 0.35 0.35 0.35 0.32 0.34 0.35 0.40 0.38 0.40 0.42 0.49 0.47 0.47 0.44 0.40 0.39 0.34 0.34 0.39 0.40 0.40 0.48 0.50 0.47 0.52 0.57 0.58 0.61 0.59 0.57 0.56 0.55 0.51 0.45 0.32 0.29 0.28 0.40 0.46 0.53 0.52 0.54 0.55 0.53 0.55 0.56 0.48 0.45 0.48 0.46 0.42 0.42 0.44 0.46
Wind_Speed
18 18 19 19 19 19 19 19 19 19 19 19 19 19 19 18 18 18 17 17 16 16 15 15 15 15 14 14 13 13 12 12 12 11 12 13 13 16 15 14 16 17 17 15 17 17 17 17 17 17 16 16 15 14 16 15 13 11 9 8 8 8 7 7 7 6 5 5 6 7 8 8 7 7 7 7 5 5 7 6 8 7 6 10 11 15 19 19
19 19 20 20 20 20 20 20 20 20 20 20 20 20 19 19 19 19 18 18 17 17 16 16 15 15 14 14 14 13 12 12 12 13 15 14 12 15 16 16 16 18 18 17 18 19 18 18 18 18 16 16 15 15 15 15 14 12 10 9 9 9 8 8 7 7 5 5 7 7 7 8 8 8 8 7 6 6 7 7 9 8 9 11 13 17 19 19
20 20 21 21 21 21 21 21 21 21 21 21 21 20 20 20 20 20 19 19 18 17 17 16 15 15 14 14 14 13 12 12 13 14 14 14 15 16 17 18 17 18 18 18 19 19 19 19 19 18 17 16 15 16 16 15 14 13 11 10 11 10 9 8 8 7 7 6 7 7 7 8 8 9 8 7 6 7 8 7 9 9 11 13 15 18 19 20
21 21 22 22 22 22 22 22 22 22 22 22 21 21 21 21 20 20 20 20 19 18 18 17 16 15 14 14 13 13 12 12 12 12 11 10 13 15 17 19 18 19 19 18 18 18 19 19 19 18 17 15 15 16 16 16 14 13 13 12 11 10 9 10 10 9 8 8 8 7 7 8 9 9 8 8 7 6 7 9 9 11 14 15 16 18 20 20
22 22 22 22 23 23 23 23 23 23 23 22 22 22 22 21 21 21 21 20 20 19 18 17 16 15 14 13 12 12 11 11 10 10 8 8 9 12 16 19 19 19 20 18 18 18 18 19 19 18 16 15 15 16 16 18 15 13 14 14 13 10 10 11 11 10 9 9 9 7 7 9 10 9 9 10 8 6 8 10 10 11 15 16 17 18 19 19
22 22 22 23 23 23 23 23 23 23 23 23 23 23 22 22 22 21 21 21 20 19 19 18 17 16 15 13 12 12 11 11 10 10 9 8 8 10 15 18 19 19 20 19 18 18 18 19 20 18 16 15 16 16 16 18 17 14 13 14 15 13 12 11 10 10 10 10 9 8 8 9 10 8 9 11 9 7 8 9 10 11 15 17 17 18 18 19
23 23 23 23 23 23 23 23 23 23 23 23 23 23 22 22 22 22 21 21 20 19 19 18 17 16 15 14 13 13 13 14 14 13 12 11 10 10 14 18 19 19 20 21 20 19 19 20 21 19 17 16 16 16 15 16 17 15 13 14 15 14 14 14 11 10 11 12 11 10 9 9 10 9 9 11 10 8 8 10 11 12 14 16 17 18 18 18
23 23 23 24 24 24 24 24 24 24 23 23 23 23 22 22 22 22 21 21 20 19 19 18 17 16 16 15 14 14 14 16 15 14 14 12 11 11 15 18 19 19 19 20 21 20 20 20 22 20 18 18 16 16 16 15 16 16 15 14 14 14 15 15 13 12 13 13 12 11 9 9 11 9 9 10 9 9 10 11 12 13 15 16 16 18 18 17
23 23 24 24 24 24 24 24 24 24 24 23 23 23 22 22 22 22 21 21 21 20 19 18 17 16 16 15 15 15 16 15 13 13 13 12 12 12 16 18 20 21 19 20 20 21 20 20 22 21 19 19 18 17 17 16 15 16 16 15 14 14 14 13 13 13 14 14 13 11 9 9 10 9 8 9 10 10 12 12 13 14 15 16 16 17 17 17
23 24 24 24 24 24 24 24 24 24 24 24 24 23 23 22 22 22 21 21 21 20 19 18 17 16 16 16 15 15 16 13 11 11 12 12 12 13 16 19 20 21 20 20 20 21 21 20 22 21 18 19 20 18 19 18 16 16 16 16 16 16 14 13 13 14 15 14 14 13 10 9 10 10 8 8 11 12 13 13 14 15 16 16 16 17 17 17
24 24 24 25 25 25 24 24 24 24 24 24 24 24 23 23 22 22 22 22 20 19 18 17 17 17 17 17 16 17 17 14 12 11 11 13 13 14 17 19 20 21 20 20 21 22 22 21 21 20 18 18 20 19 20 20 17 17 16 16 18 17 16 15 14 14 14 14 16 14 11 9 9 10 10 10 13 13 14 14 14 16 16 16 16 16 16 16
25 25 25 25 25 25 25 25 25 25 24 24 24 24 23 23 23 23 23 21 20 18 18 18 17 18 18 18 19 19 18 16 15 14 13 14 15 15 17 20 20 21 21 20 21 22 21 21 22 22 19 18 19 19 20 21 21 20 18 17 18 17 17 17 15 15 14 13 15 14 10 10 11 11 11 13 14 14 15 15 15 15 15 15 16 16 15 16
26 26 26 26 26 26 26 26 26 26 25 25 25 25 24 24 23 23 23 20 19 18 18 18 18 19 18 18 21 21 19 19 19 17 17 17 17 16 17 20 21 21 21 21 21 22 22 21 22 23 21 18 18 18 18 20 22 21 19 18 17 17 17 17 15 15 16 15 16 15 12 13 13 12 13 15 15 14 14 15 15 15 15 15 16 15 16 17
27 27 27 27 27 27 27 26 26 26 26 25 25 25 25 24 24 24 22 19 18 18 19 19 19 18 18 20 22 21 21 21 20 20 19 19 18 18 18 20 22 22 22 21 21 22 22 21 21 22 22 20 19 18 16 18 20 20 19 18 18 17 17 17 15 15 15 15 18 17 14 14 13 13 15 16 17 16 15 15 16 15 15 15 16 15 16 17
28 28 28 28 28 28 27 27 27 26 26 26 26 26 26 25 24 23 20 17 18 19 20 20 19 18 19 21 22 21 21 20 19 19 19 20 20 19 19 20 23 24 22 22 21 21 22 22 21 21 21 21 20 19 18 17 19 19 19 18 18 18 17 17 16 16 16 15 18 19 15 13 13 13 16 17 18 17 16 16 16 16 16 16 16 16 16 17
29 29 29 29 29 28 28 28 28 27 26 26 26 27 26 24 23 20 17 17 18 20 20 19 19 18 19 20 20 19 19 19 19 19 18 20 22 21 20 20 22 24 24 23 21 21 22 22 21 21 21 20 20 20 19 18 19 20 20 19 18 18 18 17 16 17 18 15 18 20 15 12 12 13 17 18 18 18 16 16 16 16 16 16 16 16 16 16
30 30 30 30 30 30 29 29 28 27 27 27 27 26 26 24 21 18 16 17 20 22 20 19 18 19 19 19 19 19 20 21 22 21 20 21 23 23 21 21 21 23 24 24 22 21 21 21 20 21 21 21 20 20 20 21 22 20 20 19 19 18 18 18 16 17 18 16 17 21 17 14 13 14 17 18 19 18 16 17 17 17 16 16 16 16 16 16
32 32 32 31 31 31 30 30 29 28 27 27 27 26 25 23 20 18 17 20 22 21 19 18 18 17 17 18 19 22 24 25 25 24 23 22 24 25 23 21 21 22 23 23 23 23 22 21 21 21 22 23 22 22 23 22 22 21 20 19 19 19 19 19 18 16 17 17 18 20 19 16 15 15 17 19 19 18 18 17 17 17 17 16 16 16 16 16
33 33 33 32 32 32 31 30 29 29 28 28 27 25 23 22 20 17 18 21 21 18 18 18 18 17 19 21 22 24 25 26 26 25 23 21 23 26 25 23 22 22 22 22 23 24 23 22 23 24 24 25 25 25 24 21 20 21 21 20 20 20 19 20 19 17 17 17 18 20 19 17 16 17 18 19 20 19 18 18 17 17 17 17 17 16 16 17
33 34 33 33 33 32 31 30 29 29 28 26 26 24 22 21 19 17 19 21 19 18 20 20 19 20 22 23 23 23 23 23 24 24 23 22 23 25 26 25 23 23 23 22 22 24 25 25 26 26 25 25 25 24 24 22 21 21 21 21 21 21 20 20 19 18 17 17 18 20 20 18 18 18 19 20 20 19 18 18 18 18 18 18 18 17 17 17
34 34 34 34 33 32 31 30 29 29 27 25 24 21 20 20 19 19 21 20 20 20 21 20 19 21 22 23 23 23 21 21 22 23 23 24 24 25 27 27 25 25 24 23 22 24 26 28 28 27 24 24 24 24 23 24 24 22 21 21 21 22 21 20 20 19 17 17 18 19 19 19 20 20 20 21 20 19 19 19 19 19 19 19 19 19 18 17
35 35 35 34 33 32 31 29 28 28 26 23 22 20 19 20 20 20 20 20 22 21 20 20 18 19 20 21 22 21 21 22 22 22 22 23 25 26 27 28 28 26 25 25 24 25 27 29 28 25 23 23 24 24 24 24 25 24 22 22 22 21 20 20 21 20 18 18 18 18 19 20 20 21 21 22 21 21 21 21 20 20 19 19 19 19 19 18
35 35 35 34 33 32 30 29 28 27 24 22 21 20 21 22 21 21 20 20 22 21 19 19 18 18 19 19 19 19 20 21 22 22 23 23 25 27 28 29 29 28 27 28 28 28 27 27 26 25 24 25 25 24 25 24 24 25 24 23 23 21 20 21 21 20 20 19 18 18 19 19 20 21 22 24 24 23 22 23 22 21 21 20 20 20 20 19
36 36 36 35 33 32 31 29 27 26 24 22 21 21 22 22 21 21 21 20 20 21 20 19 19 19 18 18 18 18 19 21 22 23 23 24 26 27 29 29 30 30 30 30 30 30 28 24 23 26 27 27 27 26 25 25 25 25 26 25 24 22 22 21 19 19 20 20 19 17 17 19 20 22 22 24 25 24 23 24 22 22 22 21 20 20 20 20
37 37 36 35 33 32 31 27 25 25 24 22 21 23 23 22 22 21 21 19 20 21 20 19 19 19 19 19 19 19 20 20 22 24 24 26 28 28 29 29 31 31 32 32 31 32 30 25 23 26 29 28 28 27 26 26 25 25 27 27 25 23 23 22 20 19 19 20 20 18 17 18 20 23 24 23 24 24 24 24 24 23 23 21 20 21 21 21
38 38 37 35 32 31 28 24 24 25 23 22 22 24 23 23 23 21 20 18 19 20 19 19 19 19 20 21 20 19 19 20 22 23 23 26 29 30 30 30 31 32 31 31 31 31 30 28 25 25 28 30 29 28 28 26 24 25 26 26 25 25 24 23 21 21 20 21 21 19 18 18 19 22 24 24 25 26 25 24 25 25 24 23 22 22 22 22
39 38 36 33 30 28 25 23 25 24 22 22 24 24 23 23 22 20 18 18 18 18 18 19 18 19 21 22 21 18 19 21 22 22 21 24 27 30 31 30 30 31 30 30 32 32 30 30 29 27 26 29 30 30 28 26 25 24 22 23 25 26 27 25 23 22 21 20 21 21 19 19 20 21 23 25 26 27 27 26 25 25 25 25 24 23 23 23
39 37 34 31 29 26 24 24 25 23 22 24 24 24 23 22 19 17 16 17 18 17 18 19 19 19 21 21 20 18 20 21 20 21 22 22 25 29 32 32 31 30 29 32 34 32 30 32 32 30 27 28 29 29 27 27 26 22 19 22 25 26 28 26 24 23 21 20 23 24 21 19 20 20 21 25 28 28 29 28 26 25 26 27 26 25 25 25
38 36 32 30 27 25 24 25 24 23 24 25 24 25 24 21 18 17 16 17 18 17 18 19 19 20 21 20 19 18 19 19 20 22 22 21 23 26 32 32 30 31 31 33 34 30 29 31 32 31 31 28 26 26 26 29 28 22 19 21 22 25 27 27 25 24 23 23 26 27 23 20 20 20 20 24 28 29 28 27 25 25 26 27 27 26 26 25
36 34 31 29 26 25 26 25 24 24 25 24 24 24 21 17 16 16 17 18 18 18 19 19 19 21 21 19 19 19 20 19 20 21 20 21 21 22 28 29 28 30 32 33 34 33 30 30 30 32 32 30 26 25 26 28 27 23 21 21 20 22 24 26 26 25 25 26 28 30 27 22 20 21 22 23 25 26 26 25 24 24 25 26 27 27 27 26
35 33 30 27 25 25 26 24 24 24 24 23 22 21 17 14 14 13 15 17 18 19 19 18 19 20 20 18 18 19 21 21 19 19 19 21 21 20 23 25 26 28 31 32 33 34 33 32 30 30 31 30 28 28 27 27 27 25 24 23 21 20 21 24 25 26 27 26 27 28 27 25 23 23 23 22 23 25 26 26 25 25 25 25 27 27 27 27
34 32 28 25 23 24 23 22 24 24 23 22 21 18 13 12 13 12 14 16 16 17 17 17 19 19 19 19 18 19 21 21 20 19 19 19 21 21 20 22 25 27 30 31 32 33 34 35 33 30 30 31 29 29 29 27 27 27 26 25 23 21 21 24 24 25 26 25 25 26 25 25 26 25 25 23 23 25 27 27 26 26 25 24 26 27 27 28
34 30 25 23 22 22 22 23 24 23 22 22 20 16 11 11 12 13 15 15 14 16 16 17 18 18 18 18 18 18 19 20 19 20 20 20 20 21 20 21 23 25 28 29 29 31 33 34 35 34 32 32 31 30 30 29 29 29 28 27 26 22 22 24 24 23 23 24 25 26 24 24 24 23 25 25 24 24 26 28 29 28 26 25 25 26 27 28
33 28 23 22 21 21 23 24 24 23 22 21 18 14 11 11 13 14 15 15 16 16 17 17 17 17 16 16 17 17 17 18 19 20 21 21 21 22 22 21 21 24 27 27 26 29 31 32 35 36 33 32 33 32 30 29 29 30 29 28 28 26 24 24 22 22 22 22 23 25 23 22 21 21 23 24 25 25 26 29 30 29 28 26 25 26 26 27
33 27 22 22 22 22 24 24 24 22 20 18 15 13 11 12 14 15 15 16 17 17 17 17 17 16 15 16 16 15 15 17 18 20 21 21 21 21 22 22 21 22 25 25 25 26 30 31 32 32 31 32 33 32 30 29 29 30 29 29 31 30 26 22 22 22 21 20 22 24 24 22 20 20 20 21 24 25 26 27 29 29 29 28 25 25 26 26
31 26 22 22 22 23 24 23 22 20 17 14 13 12 12 12 13 14 15 16 16 16 17 17 16 16 15 16 16 15 16 17 17 19 21 21 21 22 22 23 22 21 22 23 25 25 27 31 30 29 31 32 32 32 31 31 29 28 30 33 30 27 25 24 22 21 19 20 23 24 24 22 19 19 19 20 22 24 24 25 27 29 30 29 27 27 27 27
30 26 23 22 24 25 24 22 20 18 14 12 11 12 11 11 12 13 14 15 16 16 15 16 16 15 15 16 16 16 16 17 16 17 20 22 23 22 23 23 21 22 22 23 26 25 26 31 32 31 33 32 29 30 32 33 30 28 30 31 26 23 25 25 22 20 20 21 22 23 25 23 21 20 20 21 22 23 24 24 25 27 29 30 29 29 29 29
29 25 22 23 26 26 23 20 17 14 11 11 11 11 11 11 12 14 15 16 16 16 16 16 16 16 16 16 16 16 16 16 16 16 17 21 23 23 23 24 22 22 23 24 27 26 26 30 32 32 33 31 29 30 32 33 32 30 29 28 26 25 27 27 25 23 22 21 20 21 23 24 23 21 21 23 23 23 24 24 24 26 27 28 29 30 31 30
27 23 20 23 26 26 22 17 14 11 10 11 11 11 12 12 13 15 16 16 16 16 16 16 17 17 17 17 17 17 17 17 17 16 16 18 23 23 22 24 24 23 24 25 27 27 26 27 30 30 29 30 31 33 33 33 33 32 29 28 28 28 28 28 26 23 22 20 19 19 21 23 24 22 21 23 24 24 24 24 25 25 25 26 27 29 30 30
25 21 20 24 27 25 20 14 11 11 10 11 11 11 13 13 14 16 17 17 17 17 16 17 18 18 18 18 18 18 17 17 17 17 17 17 21 24 23 23 25 24 25 26 27 27 27 26 29 30 29 29 32 33 33 32 31 31 32 31 31 29 28 27 27 25 23 20 19 19 20 23 24 22 22 23 23 23 24 25 25 26 26 26 27 28 29 29
24 20 20 24 26 23 17 12 12 12 11 11 11 12 13 14 15 17 18 18 18 17 17 17 18 18 18 18 18 18 17 18 17 17 18 16 18 23 23 23 24 26 26 27 27 27 28 27 28 30 29 31 34 34 32 29 29 30 31 31 32 30 28 27 26 26 26 23 20 18 20 23 23 22 23 23 23 24 24 25 25 26 28 28 27 28 29 29
23 21 21 24 25 22 15 11 13 13 11 12 13 13 15 16 16 17 19 18 18 17 17 18 19 19 19 18 17 17 17 18 18 17 18 17 17 21 24 24 25 26 26 28 28 28 28 29 29 30 32 34 37 37 34 31 31 32 31 31 32 31 30 29 27 26 27 25 22 18 19 21 21 21 22 23 23 24 25 26 26 27 29 29 28 29 30 30
22 22 22 23 24 20 14 12 14 13 12 13 14 14 15 17 18 19 19 18 18 18 19 18 18 17 16 16 16 16 16 17 17 17 17 18 18 20 22 24 25 26 27 28 29 28 28 29 28 29 31 33 35 36 34 32 30 30 30 30 31 32 33 31 28 26 25 25 24 21 19 20 19 18 19 19 19 21 22 24 27 29 29 30 30 30 30 30
22 21 21 23 23 19 14 13 14 14 14 15 15 15 16 17 19 20 19 18 18 19 18 15 14 14 14 14 14 14 15 15 16 17 17 18 18 18 20 22 25 27 28 29 29 28 28 28 27 26 26 27 30 32 31 29 27 28 29 30 29 32 34 31 27 25 26 27 26 23 21 21 18 16 16 16 16 17 18 20 24 27 29 31 31 31 30 31
22 20 20 22 22 18 15 14 14 14 15 16 15 16 17 18 20 20 19 18 18 18 15 13 12 12 11 12 11 12 13 13 15 16 17 18 18 18 19 20 24 27 30 31 31 30 30 30 28 27 27 27 28 29 28 27 27 28 29 29 28 29 32 31 28 27 27 27 26 26 24 22 20 18 18 17 16 17 17 18 22 25 28 31 32 32 31 31
21 19 20 21 19 18 16 15 15 15 15 16 16 16 18 19 19 19 19 18 18 17 13 11 10 9 9 9 10 11 12 13 14 15 17 18 17 18 19 20 23 26 29 31 32 32 32 32 31 31 32 31 30 29 29 28 28 30 30 30 30 30 30 30 30 31 29 26 26 28 26 23 23 23 22 19 17 18 18 18 19 23 25 27 30 32 32 31
20 19 20 20 18 17 16 15 16 16 16 16 15 16 18 18 18 18 17 16 16 14 10 9 7 7 9 9 10 12 12 13 14 15 17 17 17 18 19 20 22 25 26 28 30 31 32 33 32 33 34 34 32 31 31 31 30 31 31 31 32 31 30 30 32 34 30 26 26 27 24 24 25 25 23 20 17 18 19 18 19 22 24 25 27 29 30 31
20 19 19 19 17 16 15 16 17 17 17 17 15 15 17 18 17 17 16 15 13 10 8 8 8 9 10 10 11 12 13 13 14 15 16 16 17 18 19 19 21 23 23 26 29 31 32 33 32 32 33 33 32 31 31 31 31 31 31 32 32 32 32 32 33 33 32 30 28 25 23 24 25 23 21 19 17 18 18 18 19 21 22 23 25 27 28 29
19 19 19 18 17 16 15 17 18 18 17 16 15 16 17 17 17 16 15 15 12 9 8 10 11 12 12 12 12 13 13 14 15 15 16 17 17 18 19 19 21 22 22 24 29 31 32 32 32 31 31 31 32 32 30 29 30 30 30 30 31 34 35 35 33 32 33 33 29 25 24 25 24 21 19 18 17 17 17 17 19 20 20 21 24 26 27 28
19 19 19 18 17 16 15 16 16 16 16 16 16 16 17 18 18 16 15 13 12 10 9 10 13 14 14 14 13 14 14 15 17 17 16 17 17 17 19 19 20 23 24 24 27 30 31 31 31 29 28 29 30 30 29 27 28 28 27 27 29 32 34 34 32 30 32 31 27 25 25 24 22 20 19 17 16 14 14 15 18 20 20 21 23 25 27 28
20 20 19 18 17 16 15 15 15 15 15 15 16 17 18 19 18 17 15 12 10 9 9 11 13 13 13 13 13 14 15 16 18 18 18 19 19 18 19 20 21 23 25 24 26 29 31 31 30 28 27 28 28 27 27 26 25 25 23 22 25 26 28 29 28 27 30 30 27 25 25 23 22 20 19 17 15 13 13 15 17 19 19 21 23 24 26 28
20 20 18 17 16 15 14 15 15 14 14 15 16 18 18 19 18 17 15 11 8 9 10 11 12 12 12 12 13 14 16 17 19 20 20 20 21 21 22 23 23 24 25 25 25 29 31 31 30 27 27 28 27 25 26 24 23 23 22 20 21 23 24 26 25 25 27 29 28 26 25 23 21 20 19 18 16 14 13 14 16 17 18 20 22 23 25 27
Wind_Direction
321 321 320 319 318 317 316 315 314 313 312 311 310 309 308 307 306 306 305 304 302 300 298 296 292 289 286 285 283 281 281 277 272 265 255 253 241 233 226 217 214 208 206 204 196 194 196 200 202 202 202 203 207 206 205 207 208 210 210 207 207 204 201 194 186 182 183 181 171 171 170 164 169 171 166 167 163 158 162 156 156 158 152 155 157 160 161 162
321 320 319 318 317 316 315 314 313 312 311 310 309 307 306 305 304 303 302 301 300 299 297 295 292 288 284 282 280 278 277 275 272 263 254 251 242 232 224 217 212 205 202 202 199 195 197 201 201 201 202 205 208 206 204 207 209 211 208 205 206 202 195 192 191 188 191 190 175 178 180 170 169 167 163 166 169 168 166 157 151 148 146 148 155 161 163 165
321 320 319 317 316 315 314 314 313 311 310 309 308 306 305 304 302 301 300 299 297 296 295 293 292 287 283 279 277 275 274 275 272 262 257 252 242 233 223 217 213 206 203 203 201 198 200 201 199 199 201 206 208 205 206 207 207 210 210 206 206 203 199 203 208 203 200 194 176 180 187 178 174 166 162 164 162 176 179 162 150 152 155 154 159 165 165 167
320 319 318 317 315 314 314 313 312 311 310 308 307 306 304 303 301 300 298 297 295 294 292 291 289 286 282 278 274 271 271 273 268 258 256 250 239 230 220 216 212 207 205 205 202 200 200 199 197 198 201 207 208 206 208 208 206 207 208 206 204 197 201 213 215 210 204 196 187 184 185 184 180 169 166 164 157 181 192 177 164 158 162 160 162 168 169 170
320 319 317 316 315 314 314 312 311 310 309 307 306 305 303 302 300 299 297 296 294 292 290 288 286 284 280 276 272 267 267 269 264 251 248 249 241 228 216 211 209 207 206 205 204 201 199 199 198 199 203 207 206 207 211 210 208 210 210 209 209 200 201 213 211 209 203 193 189 184 186 188 184 178 176 173 170 184 184 178 170 161 165 165 165 170 172 173
321 319 318 317 316 315 313 312 311 310 309 307 306 304 302 301 299 298 296 294 293 290 287 285 282 280 276 272 269 265 259 260 260 249 247 253 245 228 213 206 205 206 205 205 206 205 201 199 199 201 205 207 206 208 211 210 210 215 213 211 214 211 210 214 210 206 197 192 194 192 195 191 189 194 189 184 189 192 179 171 167 162 167 168 167 170 174 176
321 320 319 317 316 315 314 313 312 310 309 307 305 303 301 300 299 297 295 293 291 288 285 283 280 276 272 268 265 264 257 257 259 254 257 257 245 229 211 204 202 203 205 204 206 207 205 201 202 204 206 209 210 211 211 210 211 216 217 214 217 215 214 218 217 208 199 201 203 197 199 198 198 204 201 196 196 190 179 171 167 164 165 169 170 173 176 178
322 320 319 318 317 315 314 313 312 311 310 307 305 303 301 300 298 295 293 291 289 286 283 279 277 272 268 265 262 263 259 257 260 257 255 251 244 229 209 203 202 202 205 206 206 207 207 204 204 206 208 211 212 210 210 210 212 216 218 217 217 217 217 220 219 212 209 210 206 200 203 207 205 205 208 204 194 183 176 172 170 166 166 171 174 176 179 180
322 321 319 318 317 315 314 313 312 311 310 307 306 303 301 299 297 295 292 290 288 284 281 277 273 270 266 262 261 263 259 256 259 254 247 243 241 227 209 205 204 204 207 208 208 207 207 208 208 207 210 213 214 211 208 209 212 213 216 217 216 219 219 219 218 214 215 214 207 204 211 216 207 204 215 206 188 177 173 172 172 170 170 173 177 179 181 182
323 321 320 318 317 315 314 313 312 311 309 307 305 303 300 299 296 294 292 290 287 282 279 274 270 268 264 260 257 258 255 251 254 250 244 240 234 221 210 208 206 205 209 210 210 209 209 211 210 209 212 214 215 214 209 209 214 214 217 219 220 224 225 222 220 216 217 216 210 208 215 221 206 202 217 200 180 173 170 173 175 174 175 175 178 181 183 185
324 323 321 319 317 315 314 313 311 310 308 306 305 303 300 298 297 295 293 290 285 280 277 273 269 265 263 259 252 252 250 246 248 250 248 241 232 222 213 210 207 207 209 211 213 213 212 213 210 211 216 215 214 215 214 215 220 222 222 224 224 225 227 226 224 218 217 217 211 208 215 219 206 208 212 188 176 173 171 174 177 178 179 178 179 181 185 187
326 324 322 320 318 316 314 313 311 309 307 305 303 302 300 299 298 296 293 289 282 279 277 274 270 265 262 258 252 250 248 247 249 251 252 244 235 229 219 213 210 209 208 210 215 214 213 212 209 210 215 215 213 213 216 218 221 224 224 226 226 226 227 225 224 220 215 214 207 202 214 218 212 214 205 185 179 176 173 175 179 182 181 181 182 183 186 188
326 324 322 321 319 317 315 313 311 309 307 305 302 301 300 299 298 296 293 286 279 278 277 275 272 266 260 256 253 251 251 252 252 252 250 244 237 233 227 219 215 214 213 212 214 213 213 212 210 211 215 216 215 215 220 219 219 222 222 223 226 229 229 222 222 219 215 214 201 197 215 220 218 214 197 187 183 179 178 180 182 184 185 185 186 187 189 190
327 325 323 321 319 317 315 312 311 309 306 304 302 301 300 299 298 296 290 281 276 276 276 276 273 264 257 256 256 255 254 253 251 249 247 241 235 232 230 226 221 219 218 218 217 213 212 213 212 214 218 220 220 223 226 221 218 220 220 223 224 229 229 220 219 217 216 216 201 202 219 221 220 210 193 189 186 183 184 186 186 187 188 189 191 191 192 194
327 325 323 321 319 317 315 313 312 309 307 304 302 300 299 299 298 295 287 278 276 275 276 277 270 263 259 258 257 255 251 247 245 247 244 236 232 231 229 227 225 221 220 221 220 215 212 212 213 216 219 220 221 223 223 219 218 217 219 224 223 226 229 224 220 214 216 218 203 207 222 223 222 209 194 192 189 186 188 191 191 191 191 192 194 194 194 196
326 324 322 320 318 317 315 314 312 309 307 305 302 300 299 298 297 292 283 276 276 277 277 274 266 262 260 258 256 252 245 243 245 246 244 235 231 232 228 225 225 222 220 221 219 217 213 213 215 217 218 219 218 217 221 224 222 218 219 224 222 222 227 227 226 215 213 217 209 211 219 221 222 209 197 194 191 190 191 193 194 194 193 193 196 196 195 196
325 323 321 319 316 315 314 312 310 308 307 305 303 300 299 297 294 289 280 277 280 280 276 269 263 261 258 255 253 252 250 249 249 248 248 240 232 230 227 226 226 220 219 221 220 218 214 213 216 217 216 218 216 214 221 227 224 220 220 223 223 221 223 226 229 221 213 215 215 215 217 221 219 206 199 196 193 194 195 195 195 196 196 195 197 197 197 197
324 322 320 318 316 315 313 311 308 307 306 304 302 299 296 294 292 286 279 283 285 279 271 267 265 262 256 257 257 256 256 255 253 250 248 241 231 227 226 226 224 217 217 221 221 218 216 215 215 217 217 217 217 215 220 224 220 219 219 221 224 223 223 224 227 223 214 215 218 216 218 222 220 208 202 200 196 196 198 197 197 198 198 197 197 199 199 199
324 322 320 318 316 314 313 311 308 307 306 303 302 298 294 294 290 282 283 289 286 275 270 269 266 260 257 263 264 261 259 255 252 246 241 236 228 224 225 226 221 215 216 220 220 217 216 217 216 217 219 218 217 217 220 222 219 217 217 220 222 223 225 223 225 224 216 217 219 217 219 220 218 211 205 203 200 199 200 199 199 201 201 199 199 200 200 201
324 322 321 319 317 314 313 311 307 307 306 304 303 298 295 296 288 278 288 290 280 271 271 270 265 260 259 262 263 264 261 251 245 240 237 235 228 223 224 224 221 218 218 219 219 216 216 219 219 218 218 217 218 218 220 224 225 222 220 222 223 224 226 222 223 224 218 219 221 218 220 220 217 213 208 206 205 203 201 200 202 202 202 202 201 201 201 202
324 323 321 320 317 315 314 311 308 308 306 302 303 300 295 297 287 280 289 286 276 272 269 268 265 260 262 262 263 264 256 245 240 238 237 234 228 224 223 221 221 223 221 219 219 218 218 222 222 220 219 217 219 218 218 222 225 226 224 224 225 224 225 223 222 223 220 222 223 218 220 222 218 216 212 208 208 207 203 202 203 202 203 204 203 203 203 202
325 324 323 321 318 316 314 310 308 308 304 301 303 300 294 295 289 283 285 281 279 274 266 266 264 263 266 263 263 261 248 242 241 238 236 232 228 225 222 221 223 225 221 218 219 219 221 225 224 220 218 218 220 219 218 220 223 225 225 225 227 223 223 226 224 222 221 222 224 218 221 225 220 218 216 210 210 210 206 204 202 200 202 205 204 205 204 202
325 324 323 322 319 316 314 310 309 308 305 302 301 299 295 295 292 287 282 277 277 273 267 267 264 268 273 265 265 261 246 240 236 235 236 231 228 226 222 222 223 224 222 219 220 220 223 227 223 218 218 218 221 221 219 222 223 224 224 225 226 221 220 224 223 223 222 222 225 223 226 229 223 220 219 214 213 213 211 209 206 203 203 205 204 203 202 202
325 324 323 322 320 317 314 310 309 309 305 301 298 297 296 295 293 289 282 275 272 269 266 268 267 271 275 271 269 260 246 239 232 234 237 230 228 227 225 223 222 224 224 221 222 223 226 227 219 216 218 218 220 222 221 222 225 225 224 225 225 222 220 222 223 226 227 226 225 226 233 234 225 220 219 217 216 217 216 213 213 210 208 207 207 205 202 203
325 324 322 322 320 316 313 310 310 310 305 301 299 299 298 296 294 288 280 276 272 267 264 268 268 269 274 273 271 258 242 238 233 235 238 232 230 229 226 224 222 224 224 222 224 227 227 225 217 216 218 218 220 222 221 221 225 228 226 224 222 222 222 222 224 228 231 231 224 221 231 236 228 220 219 218 218 219 217 215 215 214 211 210 210 208 205 206
325 324 322 321 319 317 315 311 311 311 306 302 301 301 299 297 294 285 279 277 273 267 265 270 268 269 276 273 272 258 238 239 238 237 242 238 232 229 226 225 224 224 223 223 227 228 225 221 218 219 218 218 220 222 221 219 223 228 225 221 220 222 222 222 223 224 227 229 225 220 227 235 233 225 220 218 218 218 217 216 216 214 212 211 211 210 208 208
325 324 323 321 319 318 316 312 312 311 306 302 302 302 299 297 291 281 278 276 273 269 267 271 270 272 278 273 271 258 240 247 244 237 249 247 234 228 225 225 225 225 222 223 228 227 222 219 219 220 219 219 220 221 220 216 220 227 222 217 219 221 222 221 222 225 226 229 230 227 227 235 237 230 223 217 217 218 217 217 216 215 214 212 211 210 209 209
326 325 324 322 319 317 314 313 313 310 306 304 302 302 299 294 286 278 278 272 270 271 266 270 273 275 279 272 265 254 246 251 243 240 252 248 236 228 225 226 226 226 223 222 227 225 220 220 219 219 221 222 222 222 219 216 220 224 218 216 219 220 222 221 222 227 228 231 235 231 227 234 238 234 227 219 216 216 216 216 216 215 215 214 212 211 209 210
328 326 324 322 319 316 314 313 313 309 308 307 304 302 298 290 282 278 276 267 268 273 268 272 275 275 280 270 257 254 251 249 244 246 250 244 239 232 226 225 226 228 227 226 227 225 221 222 219 219 223 223 223 222 219 218 221 220 216 218 219 219 221 221 222 225 228 230 233 231 227 229 238 236 226 219 215 215 215 216 216 215 214 213 212 211 211 211
329 328 325 322 319 316 315 314 313 311 311 309 306 304 298 287 283 280 274 268 270 275 272 275 275 275 280 270 256 256 253 249 251 251 246 241 242 236 227 225 227 228 227 227 228 225 223 222 219 221 223 222 221 221 219 219 220 218 217 219 220 220 219 220 222 222 227 230 230 230 228 227 235 235 226 220 217 215 215 215 216 216 215 215 214 213 211 211
330 328 325 323 321 320 319 317 316 316 315 313 311 308 299 288 287 278 273 274 275 276 275 277 278 277 280 274 263 261 253 248 253 252 246 243 239 234 228 227 230 229 227 227 227 225 224 222 220 221 221 219 220 221 220 219 218 216 216 217 220 220 216 218 219 218 224 230 227 228 228 227 232 233 228 224 222 218 215 213 213 215 215 215 215 214 213 212
330 328 326 325 324 324 324 320 319 319 317 316 314 309 298 290 288 279 280 284 279 278 280 281 282 279 278 273 266 266 256 248 251 249 244 241 234 227 223 226 229 229 227 227 226 224 223 223 222 221 219 216 217 219 218 218 216 214 213 213 214 215 213 216 216 217 225 230 226 223 225 229 232 233 228 224 223 220 216 213 211 211 212 213 214 214 213 213
330 329 327 327 326 326 326 322 320 319 316 316 312 305 296 289 286 284 288 288 279 281 285 282 283 281 278 272 266 268 260 250 250 247 241 238 233 224 221 226 227 226 227 227 226 224 223 223 220 220 219 216 215 216 215 215 214 211 210 210 211 210 213 217 217 220 226 229 226 222 224 232 234 233 227 222 222 221 218 216 212 211 212 213 213 212 212 212
331 328 325 326 324 324 325 323 321 318 315 314 309 301 299 290 285 287 289 283 280 284 285 281 282 282 278 273 268 266 260 254 253 247 241 238 234 229 226 227 227 228 227 224 224 223 223 223 218 217 218 216 216 217 214 213 214 213 211 210 213 213 213 216 218 220 224 226 225 221 223 229 228 229 227 220 220 220 219 218 216 215 216 215 213 211 210 211
331 326 322 323 322 321 323 322 320 318 315 313 308 302 301 292 286 288 287 282 282 284 283 282 282 280 278 274 270 267 260 258 256 247 241 237 233 231 230 229 229 230 226 223 225 226 227 225 218 220 223 217 216 217 213 211 214 215 212 211 216 215 213 217 220 221 222 225 224 220 224 230 229 233 231 222 220 219 217 218 215 215 217 217 217 214 212 212
331 326 321 323 323 322 322 321 320 318 316 315 312 306 299 291 290 289 288 286 285 284 283 285 284 280 279 276 271 272 265 260 258 248 238 233 229 227 228 229 229 228 225 225 226 226 228 226 221 225 228 220 217 216 212 212 213 212 211 214 216 214 213 219 223 224 221 224 225 222 226 233 233 235 229 219 220 219 216 216 214 213 214 215 217 216 214 213
333 328 324 325 326 324 321 319 319 318 319 319 315 308 299 294 296 295 293 292 288 286 285 285 285 281 280 277 272 275 270 261 259 252 239 232 229 225 225 227 226 225 226 228 224 223 231 231 224 222 222 219 220 220 215 213 212 211 213 214 213 212 215 218 220 223 221 225 229 224 225 227 226 228 224 216 218 219 216 215 213 213 212 213 215 215 214 214
333 331 329 331 330 326 321 317 317 317 323 325 317 312 307 300 301 301 298 295 290 290 287 282 281 278 277 276 272 274 272 262 258 254 244 234 228 226 227 228 226 225 229 230 225 225 232 232 223 217 217 219 219 218 215 213 213 213 214 212 210 211 214 214 216 220 221 225 231 228 226 226 222 222 221 217 218 218 217 215 214 214 213 214 215 214 214 215
336 334 334 335 333 329 324 317 314 317 324 323 314 312 309 302 303 306 305 300 292 292 291 283 280 278 275 273 271 271 269 261 255 252 246 238 232 231 229 229 229 229 231 230 226 227 229 226 221 217 218 220 217 213 212 212 212 213 214 212 212 214 215 214 216 218 219 224 229 228 229 228 225 222 218 219 220 219 218 218 217 216 215 214 214 214 214 214
337 334 333 335 335 332 326 319 318 321 319 313 307 307 307 303 304 309 309 303 293 290 290 284 283 280 275 272 268 267 265 258 251 247 246 243 238 233 229 229 232 233 233 229 226 227 225 222 222 221 220 219 214 210 209 210 211 212 213 212 212 214 214 215 218 217 217 222 224 226 231 231 228 224 220 221 223 221 219 220 220 219 217 215 214 214 213 212
335 332 332 336 338 335 328 324 323 318 310 306 305 305 307 307 306 306 309 306 296 290 288 284 282 278 272 270 267 264 261 256 250 245 245 247 241 234 231 234 236 235 233 228 225 225 224 224 225 224 222 218 214 213 212 212 213 214 215 215 213 212 211 212 219 218 216 220 221 224 233 235 230 225 223 223 224 224 221 220 223 222 218 217 215 213 212 211
334 331 331 337 340 336 332 326 320 314 308 307 306 302 303 308 308 306 309 308 299 293 290 284 280 276 270 266 264 261 258 254 250 244 243 246 244 239 237 238 237 234 232 229 227 227 225 224 224 224 223 220 218 217 216 216 217 216 217 216 215 214 211 212 218 217 215 220 222 224 234 237 231 224 223 225 225 226 224 221 224 224 220 218 215 212 211 210
336 331 332 339 341 337 335 328 319 313 309 308 306 304 305 307 308 308 308 307 302 298 295 286 279 275 268 263 261 261 258 253 247 242 244 247 247 243 239 238 236 233 230 227 225 226 224 221 223 225 223 221 218 214 212 213 215 216 218 217 216 216 214 215 218 217 216 220 220 224 233 235 228 219 217 221 223 224 223 222 223 224 222 219 215 212 211 211
336 331 333 341 344 343 339 329 320 312 309 309 307 308 310 308 310 312 308 306 306 302 296 287 278 271 265 263 261 260 259 252 244 242 246 248 248 246 241 238 236 232 228 225 224 224 223 220 220 221 219 217 214 210 209 212 214 217 218 218 219 218 215 216 218 218 220 220 217 220 227 228 224 218 215 217 218 219 219 220 222 222 221 218 215 212 210 211
337 334 335 340 345 348 343 334 326 318 315 314 310 310 312 308 310 315 312 308 311 306 292 280 276 270 265 264 260 259 259 251 246 246 247 248 250 248 242 238 236 232 229 228 227 225 222 219 217 215 212 210 208 206 208 214 218 219 218 219 221 219 217 217 215 215 219 219 215 217 222 226 228 227 224 221 219 222 224 225 227 223 218 215 213 211 209 210
339 338 336 337 341 345 343 339 336 328 323 322 317 315 315 311 310 315 315 312 314 309 289 274 276 275 270 270 266 263 260 253 249 251 250 250 251 248 244 239 237 234 231 230 227 222 219 218 216 214 214 214 215 215 215 219 222 222 223 223 222 220 220 218 214 214 216 215 216 219 221 227 232 231 228 224 222 226 230 230 228 222 215 211 210 209 209 210
341 340 338 337 338 340 340 339 339 333 327 327 322 318 321 320 316 316 314 312 315 310 287 272 280 279 273 276 273 267 263 259 257 257 255 253 253 251 247 240 237 234 228 227 225 219 217 218 217 216 217 218 220 223 223 223 224 224 226 226 224 222 221 220 217 215 211 211 219 221 219 224 230 228 225 224 225 230 233 231 224 217 212 209 207 207 207 208
342 342 342 340 339 339 339 336 335 333 330 330 326 324 326 327 324 321 315 311 312 307 285 273 279 281 277 276 273 269 268 268 266 264 262 259 257 255 249 239 233 229 222 222 224 219 216 217 217 217 219 221 221 222 223 223 222 222 224 225 225 225 222 221 221 216 209 212 219 218 215 220 225 224 223 225 228 231 234 230 220 212 208 206 204 203 203 203
344 343 342 342 340 338 337 332 331 334 335 333 331 332 331 329 328 326 318 310 304 296 284 276 278 283 282 277 273 270 271 272 271 270 268 264 261 256 249 239 230 225 220 220 220 218 215 216 216 217 220 223 221 217 216 218 219 220 222 224 226 225 221 220 220 215 211 214 217 216 216 220 221 220 222 228 229 228 230 224 211 204 202 200 199 199 199 199
346 344 342 342 341 337 335 334 335 337 338 335 335 337 335 333 332 329 321 311 298 288 284 281 282 285 284 280 275 270 270 270 271 271 270 267 262 255 246 236 226 221 219 217 216 214 213 212 213 215 218 219 215 211 211 214 217 219 222 224 226 223 217 215 216 215 214 214 216 216 219 221 220 217 219 224 223 220 222 216 205 201 199 196 195 196 195 196
345 343 342 342 342 340 338 339 341 340 340 340 339 339 337 337 337 333 324 311 291 282 283 285 287 286 283 281 277 274 275 273 271 270 268 266 261 253 243 231 220 216 216 215 213 211 209 210 211 212 214 213 209 210 214 215 215 216 218 222 221 216 211 210 211 213 214 212 212 214 217 220 220 218 218 219 215 212 216 213 205 204 201 194 193 195 194 195
345 344 343 343 344 344 343 342 343 343 344 343 341 340 339 337 338 336 331 319 293 279 280 284 289 287 284 283 281 282 284 283 279 276 272 267 261 252 242 229 215 210 211 211 211 209 206 208 210 209 209 210 210 213 214 211 210 212 212 214 212 207 204 205 207 213 214 210 209 212 215 216 217 217 218 215 209 208 212 209 204 206 206 200 196 196 195 196